Weather History for KTTA - May, 2013

Change the Weather History Date:

Monday, May 6, 2013

  Actual Average (KRDU) Record (KRDU)
Temperature  
Mean Temperature 62 °F 65 °F  
Max Temperature 69 °F 77 °F 95 °F (1950)
Min Temperature 54 °F 53 °F 34 °F (1973)
Degree Days  
Heating Degree Days 3 3  
Month to date heating degree days 19  
Since 1 July heating degree days 3208  
Cooling Degree Days 0 3  
Month to date cooling degree days 18  
Year to date cooling degree days 79  
Growing Degree Days 12 (Base 50)    
Moisture  
Dew Point 58 °F    
Average Humidity 90    
Maximum Humidity 96    
Minimum Humidity 76    
Precipitation  
Precipitation 0.71 in 0.10 in 2.32 in (1958)
Month to date precipitation 0.55  
Year to date precipitation 14.31  
Sea Level Pressure  
Sea Level Pressure 29.90 in    
Wind  
Wind Speed 6 mph (NE)    
Max Wind Speed 12 mph    
Max Gust Speed 17 mph    
Visibility 9 miles    
Events Rain    
T = Trace of Precipitation, MM = Missing Value Source: NWS Daily Summary

Daily Weather History Graph

Daily Weather History Graph

Search for Another Location

Airport or City:

Trip Planner

Search our weather history database for the weather conditions in past years. The results will help you decide how hot, cold, wet, or windy it might be!

Date:

Astronomy

May. 06, 2013 Rise Set
Actual Time 6:19 AM EDT 8:07 PM EDT
Civil Twilight 5:51 AM EDT 8:35 PM EDT
Nautical Twilight 5:18 AM EDT 9:08 PM EDT
Astronomical Twilight 4:42 AM EDT 9:44 PM EDT
Moon 4:13 AM EDT (5/6) 5:11 PM EDT (5/6)
Length of Visible Light 14h 43m
Length of Day
13h 48m
Waning Crescent, 11% of the Moon is Illuminated
May 6
Waning Crescent
May 9
New
May 18
First Quarter
May 25
Full
May 31
Last Quarter

Hourly Weather History & Observations

Time (EDT) Temp. Dew Point Humidity Pressure Visibility Wind Dir Wind Speed Gust Speed Precip Events Conditions
12:15 AM 59.7 °F 55.8 °F 87% 29.98 in 10.0 mi NE 6.9 mph - N/A   Overcast
12:35 AM 59.5 °F 55.6 °F 87% 29.98 in 10.0 mi ENE 6.9 mph 17.3 mph N/A   Overcast
12:55 AM 59.4 °F 55.6 °F 87% 29.98 in 10.0 mi NE 9.2 mph - N/A   Overcast
1:15 AM 59.2 °F 55.6 °F 88% 29.98 in 10.0 mi ENE 6.9 mph - N/A   Overcast
1:35 AM 59.0 °F 55.6 °F 88% 29.97 in 10.0 mi ENE 8.1 mph - N/A   Overcast
1:55 AM 58.6 °F 55.6 °F 90% 29.97 in 10.0 mi ENE 6.9 mph - N/A   Overcast
2:15 AM 58.5 °F 55.6 °F 90% 29.96 in 7.0 mi ENE 6.9 mph - N/A   Overcast
2:35 AM 58.1 °F 55.8 °F 92% 29.96 in 5.0 mi NE 9.2 mph - 0.01 in Rain Rain
2:55 AM 57.7 °F 55.9 °F 94% 29.94 in 7.0 mi ENE 6.9 mph - 0.02 in   Light Drizzle
3:15 AM 57.7 °F 56.3 °F 95% 29.94 in 7.0 mi NE 8.1 mph - N/A   Overcast
3:35 AM 57.6 °F 55.9 °F 94% 29.94 in 7.0 mi NE 8.1 mph - N/A   Overcast
3:55 AM 57.6 °F 55.9 °F 94% 29.93 in 10.0 mi NE 6.9 mph - N/A   Overcast
4:15 AM 57.7 °F 56.3 °F 95% 29.94 in 7.0 mi East 5.8 mph - N/A   Overcast
4:35 AM 57.9 °F 56.3 °F 94% 29.93 in 7.0 mi ENE 5.8 mph - N/A   Overcast
4:55 AM 57.7 °F 56.3 °F 95% 29.92 in 7.0 mi ENE 8.1 mph - N/A Rain Rain
5:15 AM 57.9 °F 56.3 °F 94% 29.92 in 7.0 mi ENE 8.1 mph - N/A Rain Light Rain
5:35 AM 58.1 °F 56.7 °F 95% 29.91 in 10.0 mi ENE 8.1 mph - N/A Rain Light Rain
5:55 AM 58.1 °F 56.5 °F 94% 29.91 in 10.0 mi NE 5.8 mph - N/A Rain Light Rain
6:15 AM 58.1 °F 56.5 °F 94% 29.91 in 10.0 mi NE 8.1 mph - N/A   Overcast
6:35 AM 58.3 °F 56.5 °F 94% 29.91 in 10.0 mi NE 6.9 mph - N/A   Overcast
6:55 AM 58.6 °F 56.8 °F 94% 29.93 in 10.0 mi ENE 5.8 mph - N/A   Overcast
7:15 AM 58.6 °F 56.8 °F 94% 29.92 in 5.0 mi NE 6.9 mph - N/A   Drizzle
7:35 AM 59.0 °F 57.4 °F 94% 29.93 in 7.0 mi ENE 6.9 mph - N/A Rain Rain
7:55 AM 59.0 °F 57.6 °F 95% 29.93 in 10.0 mi NE 6.9 mph - N/A   Overcast
8:15 AM 59.4 °F 57.7 °F 94% 29.93 in 5.0 mi ENE 8.1 mph - 0.01 in Rain Rain
8:35 AM 59.5 °F 58.1 °F 95% 29.93 in 7.0 mi ENE 4.6 mph - 0.01 in   Drizzle
8:55 AM 59.9 °F 58.5 °F 95% 29.93 in 10.0 mi NE 4.6 mph - 0.02 in   Overcast
9:15 AM 60.3 °F 59.0 °F 96% 29.92 in 5.0 mi NE 5.8 mph - 0.02 in Rain Light Rain
9:35 AM 60.4 °F 59.0 °F 95% 29.93 in 7.0 mi ENE 4.6 mph - 0.03 in   Overcast
9:55 AM 61.7 °F 60.1 °F 94% 29.92 in 10.0 mi NE 6.9 mph - 0.03 in   Overcast
10:15 AM 62.2 °F 60.3 °F 93% 29.92 in 10.0 mi ENE 5.8 mph - N/A   Overcast
10:35 AM 62.8 °F 60.4 °F 92% 29.91 in 10.0 mi East 4.6 mph - N/A   Overcast
10:55 AM 63.5 °F 60.8 °F 91% 29.91 in 10.0 mi East 5.8 mph - N/A   Overcast
11:15 AM 63.5 °F 60.8 °F 91% 29.90 in 7.0 mi ENE 5.8 mph - N/A Rain Light Rain
11:35 AM 63.0 °F 60.8 °F 93% 29.89 in 4.0 mi East 11.5 mph - 0.03 in Rain Light Rain
11:55 AM 63.5 °F 61.2 °F 92% 29.91 in 10.0 mi SSW 10.4 mph - 0.04 in Rain Light Rain
12:15 PM 59.9 °F 58.1 °F 94% 29.90 in 0.8 mi SW 4.6 mph - 0.55 in Rain Heavy Rain
1:55 PM 64.4 °F 60.1 °F 86% 29.88 in - SE 3.5 mph - N/A   Unknown
2:15 PM 65.3 °F 59.4 °F 81% 29.88 in 10.0 mi ESE 3.5 mph - N/A   Mostly Cloudy
2:35 PM 66.2 °F 60.4 °F 82% 29.86 in 10.0 mi ENE 3.5 mph - N/A   Overcast
2:55 PM 66.6 °F 60.8 °F 82% 29.86 in 10.0 mi NE 5.8 mph - N/A   Mostly Cloudy
3:15 PM 66.6 °F 60.1 °F 80% 29.86 in 10.0 mi NE 3.5 mph - N/A   Scattered Clouds
3:35 PM 66.9 °F 61.2 °F 82% 29.85 in 10.0 mi NE 5.8 mph - N/A   Mostly Cloudy
3:55 PM 69.1 °F 61.5 °F 77% 29.84 in 10.0 mi ENE 6.9 mph - N/A   Scattered Clouds
4:15 PM 68.0 °F 60.1 °F 76% 29.83 in 10.0 mi NE 4.6 mph - N/A   Scattered Clouds
4:35 PM 67.5 °F 60.4 °F 78% 29.83 in 10.0 mi North 5.8 mph - N/A   Mostly Cloudy
4:55 PM 66.9 °F 60.8 °F 81% 29.84 in 4.0 mi Calm Calm - 0.04 in Rain Heavy Rain
5:15 PM 68.2 °F 63.0 °F 83% 29.83 in 10.0 mi North 6.9 mph - 0.01 in   Mostly Cloudy
5:35 PM 69.1 °F 62.4 °F 79% 29.83 in 10.0 mi NNE 6.9 mph - 0.01 in   Mostly Cloudy
5:55 PM 69.8 °F 62.4 °F 77% 29.83 in 10.0 mi North 5.8 mph - 0.01 in   Mostly Cloudy
6:15 PM 69.8 °F 62.8 °F 78% 29.82 in 10.0 mi North 6.9 mph - N/A   Scattered Clouds
6:55 PM 67.1 °F 62.2 °F 84% 29.82 in 10.0 mi North 4.6 mph - N/A   Scattered Clouds
7:15 PM 66.4 °F 61.7 °F 85% 29.83 in 10.0 mi North 4.6 mph - N/A   Mostly Cloudy
7:35 PM 65.5 °F 61.7 °F 88% 29.83 in 10.0 mi North 4.6 mph - N/A   Mostly Cloudy
7:55 PM 64.0 °F 60.8 °F 89% 29.84 in 10.0 mi NNE 3.5 mph - N/A   Scattered Clouds
8:15 PM 63.7 °F 61.2 °F 91% 29.84 in 10.0 mi Calm Calm - N/A   Scattered Clouds
8:35 PM 61.9 °F 59.9 °F 93% 29.85 in 10.0 mi NNE 3.5 mph - N/A   Scattered Clouds
8:55 PM 60.8 °F 59.2 °F 94% 29.86 in 7.0 mi North 4.6 mph - N/A   Scattered Clouds
9:15 PM 61.5 °F 60.3 °F 96% 29.87 in 10.0 mi North 4.6 mph - N/A   Mostly Cloudy
9:35 PM 61.7 °F 60.4 °F 96% 29.87 in 10.0 mi Calm Calm - N/A   Mostly Cloudy
9:55 PM 60.6 °F 59.2 °F 95% 29.88 in 10.0 mi South 3.5 mph - N/A   Scattered Clouds
10:15 PM 58.8 °F 57.0 °F 94% 29.89 in 3.0 mi East 3.5 mph - N/A   Scattered Clouds
10:35 PM 57.4 °F 55.9 °F 95% 29.88 in 5.0 mi Calm Calm - N/A   Clear
10:55 PM 57.6 °F 55.6 °F 93% 29.89 in 10.0 mi Calm Calm - N/A   Clear
11:15 PM 56.5 °F 53.6 °F 90% 29.89 in 10.0 mi Calm Calm - N/A   Clear
11:35 PM 55.4 °F 53.4 °F 93% 29.88 in 10.0 mi Calm Calm - N/A   Clear
11:55 PM 54.9 °F 53.6 °F 96% 29.88 in 10.0 mi Calm Calm - N/A   Clear